Weather History for Bellingham, WA

Change the Weather History Date:

Tuesday, February 5, 2013

  Actual Average Record
Temperature  
Mean Temperature 46 °F 40 °F  
Max Temperature 50 °F 48 °F 60 °F (1963)
Min Temperature 42 °F 33 °F 10 °F (1949)
Degree Days  
Heating Degree Days 19 25  
Month to date heating degree days 125  
Cooling Degree Days 0 0  
Month to date cooling degree days 0  
Year to date cooling degree days 0  
Moisture  
Dew Point 40 °F    
Average Humidity 77    
Maximum Humidity 93    
Minimum Humidity 64    
Precipitation  
Precipitation 0.02 in 0.11 in 1.07 in (1965)
Month to date precipitation 0.58  
Year to date precipitation 5.25  
Sea Level Pressure  
Sea Level Pressure 29.82 in    
Wind  
Wind Speed 13 mph (SSE)    
Max Wind Speed 20 mph    
Max Gust Speed 34 mph    
Visibility 10 miles    
Events Rain    
T = Trace of Precipitation, MM = Missing Value Source: NWS Daily Summary

Daily Weather History Graph

Daily Weather History Graph

Search for Another Location

Airport:

Trip Planner

Search our weather history database for the weather conditions in past years. The results will help you decide how hot, cold, wet, or windy it might be!

Date:

Astronomy

Feb. 05, 2013 Rise Set
Actual Time 7:33 AM PST 5:15 PM PST
Civil Twilight 7:00 AM PST 5:48 PM PST
Nautical Twilight 6:22 AM PST 6:26 PM PST
Astronomical Twilight 5:46 AM PST 7:03 PM PST
Moon 3:31 AM PST (2/5) 12:27 PM PST (2/5)
Length of Visible Light 10h 48m
Length of Day
9h 41m
Waning Crescent, 25% of the Moon is Illuminated
Feb 5
Waning Crescent
Feb 9
New
Feb 17
First Quarter
Feb 25
Full
Mar 4
Last Quarter

Hourly Weather History & Observations

Time (PST) Temp. Windchill Dew Point Humidity Pressure Visibility Wind Dir Wind Speed Gust Speed Precip Events Conditions
12:53 AM 42.1 °F 39.2 °F 39.9 °F 92% 29.84 in 9.0 mi ENE 4.6 mph - N/A   Overcast
1:53 AM 48.9 °F - 39.0 °F 69% 29.82 in 10.0 mi SE 15.0 mph 24.2 mph N/A   Overcast
2:53 AM 48.9 °F - 37.0 °F 64% 29.82 in 10.0 mi SSE 9.2 mph 21.9 mph N/A   Overcast
3:53 AM 48.0 °F - 39.9 °F 74% 29.85 in 10.0 mi South 10.4 mph 21.9 mph N/A   Overcast
4:09 AM 46.4 °F 40.1 °F 39.2 °F 76% 29.82 in 10.0 mi SSE 15.0 mph 23.0 mph 0.00 in Rain Light Rain
4:30 AM 46.4 °F 39.2 °F 39.2 °F 76% 29.81 in 10.0 mi SSE 18.4 mph 26.5 mph 0.00 in Rain Light Rain
4:53 AM 46.9 °F - 39.9 °F 77% 29.82 in 10.0 mi SSE 17.3 mph 25.3 mph 0.01 in Rain Light Rain
5:53 AM 46.9 °F - 39.9 °F 77% 29.81 in 10.0 mi SSE 17.3 mph 28.8 mph 0.00 in   Overcast
6:53 AM 46.4 °F 39.5 °F 39.2 °F 76% 29.78 in 10.0 mi SSE 17.3 mph 26.5 mph N/A   Mostly Cloudy
7:35 AM 46.4 °F 39.5 °F 37.4 °F 71% 29.80 in 10.0 mi SSE 17.3 mph 29.9 mph N/A   Overcast
7:53 AM 46.9 °F - 39.0 °F 74% 29.83 in 10.0 mi SSE 16.1 mph 23.0 mph N/A   Overcast
8:53 AM 46.9 °F - 39.0 °F 74% 29.84 in 10.0 mi SSE 18.4 mph 31.1 mph N/A   Overcast
9:53 AM 48.0 °F - 39.9 °F 74% 29.85 in 10.0 mi SSE 12.7 mph 19.6 mph N/A   Overcast
10:53 AM 48.0 °F - 39.9 °F 74% 29.85 in 10.0 mi SE 13.8 mph - N/A   Overcast
11:53 AM 48.0 °F - 39.9 °F 74% 29.83 in 10.0 mi SSE 10.4 mph 20.7 mph N/A   Overcast
12:53 PM 48.9 °F - 39.9 °F 71% 29.81 in 10.0 mi SSE 16.1 mph 23.0 mph N/A   Overcast
1:10 PM 48.2 °F - 39.2 °F 71% 29.78 in 10.0 mi SSE 15.0 mph 23.0 mph N/A   Overcast
1:53 PM 48.9 °F - 39.9 °F 71% 29.79 in 10.0 mi SSE 18.4 mph 31.1 mph N/A   Mostly Cloudy
2:53 PM 50.0 °F - 39.0 °F 66% 29.79 in 10.0 mi SSE 16.1 mph 29.9 mph N/A   Mostly Cloudy
3:53 PM 48.9 °F - 39.0 °F 69% 29.80 in 10.0 mi SSE 16.1 mph 24.2 mph N/A   Overcast
4:53 PM 48.9 °F - 39.0 °F 69% 29.78 in 10.0 mi SSE 16.1 mph 25.3 mph N/A   Overcast
5:34 PM 48.2 °F - 39.2 °F 71% 29.77 in 10.0 mi SSE 18.4 mph 34.5 mph N/A   Overcast
5:53 PM 46.9 °F - 42.1 °F 83% 29.80 in 10.0 mi South 19.6 mph 28.8 mph 0.00 in Rain Light Rain
6:45 PM 46.4 °F 40.4 °F 41.0 °F 81% 29.78 in 10.0 mi SSE 13.8 mph 24.2 mph 0.00 in   Overcast
6:53 PM 46.9 °F - 41.0 °F 80% 29.80 in 10.0 mi South 16.1 mph 24.2 mph 0.00 in   Overcast
7:09 PM 46.4 °F 41.5 °F 41.0 °F 81% 29.79 in 10.0 mi South 10.4 mph 24.2 mph 0.01 in Rain Light Rain
7:53 PM 46.4 °F 41.1 °F 41.0 °F 81% 29.80 in 10.0 mi South 11.5 mph 24.2 mph N/A   Overcast
8:53 PM 45.0 °F 41.2 °F 42.1 °F 90% 29.86 in 10.0 mi SSE 6.9 mph 16.1 mph 0.01 in Rain Light Rain
9:05 PM 44.6 °F 40.2 °F 42.8 °F 93% 29.83 in 10.0 mi SSE 8.1 mph - 0.00 in   Overcast
9:27 PM 44.6 °F 40.7 °F 42.8 °F 93% 29.84 in 10.0 mi SSE 6.9 mph - 0.00 in   Overcast
9:53 PM 46.0 °F 41.4 °F 42.1 °F 86% 29.88 in 10.0 mi SSE 9.2 mph - 0.00 in   Overcast
10:53 PM 46.0 °F 39.6 °F 41.0 °F 83% 29.88 in 10.0 mi South 15.0 mph 20.7 mph N/A   Overcast
11:53 PM 45.0 °F 39.3 °F 41.0 °F 86% 29.91 in 10.0 mi South 11.5 mph 20.7 mph 0.00 in Rain Light Rain